User: anonymous   Login
Location: Scultetus-Sternwarte G�rlitz
(51.1356°N, 14.9514°E)
Time: 11:09:27
(UTC+01:00)
Language:

Iridium 3 - Orbit

View from above orbital plane
View from above orbital plane
View from above satellite
View from above satellite

Ground track
Ground track

The orbit data is extracted from the following two-line orbital elements,

1 25431U 98048A   15031.55613786  .00000333  00000-0  11183-3 0   688
2 25431 086.3936 258.3352 0001838 099.7406 322.3576 14.34219944861256
Epoch (UTC): 31 January 2015 13:20:50
Eccentricity: 0.0001838
inclination: 86.3936°
perigee height: 776 km
apogee height: 779 km
right ascension of ascending node: 258.3352°
argument of perigee: 99.7406°
revolutions per day: 14.34219944
mean anomaly at epoch: 322.3576°
orbit number at epoch: 86125

The dashed part of the orbit path shows where the satellite is in the earth's shadow,  

DLR